,,,PA_Meas_PMT16A,,PR_Meas_QMR101_102,,RH_Meas_QMH101,,SR_Meas_QMS101,,TA_Meas_QMH101,,GenWind,,GenWind,
date,time,status,PA,status,PR,status,RH,status,SR,status,TA,status,DirAvg,status,SpdAvg,
2011-12-18, 00:00:04,VALID,1002.97,VALID,0,VALID,100.808,VALID,0,VALID,23.9371,VALID,360,VALID,0.00546875,
2011-12-18, 00:01:04,VALID,1002.95,VALID,0,VALID,100.762,VALID,0,VALID,23.8946,VALID,360,VALID,0,
2011-12-18, 00:02:04,VALID,1002.95,VALID,0,VALID,100.747,VALID,0,VALID,23.9371,VALID,360,VALID,0,
2011-12-18, 00:03:04,VALID,1002.94,VALID,0,VALID,100.739,VALID,0,VALID,23.9159,VALID,360,VALID,0,
2011-12-18, 00:04:04,VALID,1002.93,VALID,0,VALID,100.633,VALID,0,VALID,23.8964,VALID,360,VALID,0,
2011-12-18, 00:05:04,VALID,1002.93,VALID,0,VALID,100.572,VALID,0,VALID,23.8982,VALID,360,VALID,0.378906,
2011-12-18, 00:06:04,VALID,1002.93,VALID,0,VALID,100.877,VALID,0,VALID,23.8964,VALID,360,VALID,0.357812,
2011-12-18, 00:07:04,VALID,1002.95,VALID,0,VALID,100.991,VALID,0,VALID,23.9566,VALID,360,VALID,0.415234,
2011-12-18, 00:08:04,VALID,1002.94,VALID,0,VALID,100.961,VALID,0,VALID,24.015,VALID,360,VALID,0.509375,
2011-12-18, 00:09:04,VALID,1003.02,VALID,0,VALID,100.9,VALID,0,VALID,24.015,VALID,360,VALID,0.54375,
2011-12-18, 00:10:04,VALID,1003,VALID,0,VALID,100.373,VALID,0,VALID,23.9566,VALID,358,VALID,0.771875,
2011-12-18, 00:11:04,VALID,1003.03,VALID,0,VALID,99.6561,VALID,0,VALID,23.8964,VALID,357,VALID,0.838672,
2011-12-18, 00:12:04,VALID,1003.07,VALID,0,VALID,100.701,VALID,0,VALID,23.9159,VALID,356,VALID,0.718359,
2011-12-18, 00:13:04,VALID,1003.08,VALID,0,VALID,100.976,VALID,0,VALID,23.9742,VALID,353,VALID,0.717578,
2011-12-18, 00:14:04,VALID,1003.09,VALID,0,VALID,100.976,VALID,0,VALID,24.0326,VALID,347,VALID,0.787109,
2011-12-18, 00:15:04,VALID,1003.08,VALID,0,VALID,100.915,VALID,0,VALID,24.1123,VALID,349,VALID,0.304688,
2011-12-18, 00:16:04,VALID,1003.12,VALID,0,VALID,100.961,VALID,0,VALID,24.1494,VALID,351,VALID,0.564062,
2011-12-18, 00:17:04,VALID,1003.11,VALID,0,VALID,101.045,VALID,0,VALID,24.2273,VALID,353,VALID,0.55625,
2011-12-18, 00:18:04,VALID,1003.13,VALID,0,VALID,101.067,VALID,0,VALID,24.2662,VALID,353,VALID,0.595703,
2011-12-18, 00:19:04,VALID,1003.13,VALID,0,VALID,101.045,VALID,0,VALID,24.2681,VALID,353,VALID,0.610547,
2011-12-18, 00:20:04,VALID,1003.14,VALID,0,VALID,101.006,VALID,0,VALID,24.2681,VALID,353,VALID,0.777344,
2011-12-18, 00:21:04,VALID,1003.14,VALID,0,VALID,100.816,VALID,0,VALID,24.2273,VALID,353,VALID,0.766016,
2011-12-18, 00:22:04,VALID,1003.14,VALID,0,VALID,100.503,VALID,0,VALID,24.2097,VALID,353,VALID,0.822266,
2011-12-18, 00:23:04,VALID,1003.15,VALID,0,VALID,100.617,VALID,0,VALID,24.2078,VALID,353,VALID,0.909375,
2011-12-18, 00:24:04,VALID,1003.17,VALID,0,VALID,100.671,VALID,0,VALID,24.1689,VALID,353,VALID,0.937109,
2011-12-18, 00:25:04,VALID,1003.17,VALID,0,VALID,100.793,VALID,0,VALID,24.1689,VALID,353,VALID,0.651953,
2011-12-18, 00:26:04,VALID,1003.16,VALID,0,VALID,100.732,VALID,0,VALID,24.2097,VALID,355,VALID,0.613672,
2011-12-18, 00:27:04,VALID,1003.16,VALID,0,VALID,101.014,VALID,0,VALID,24.2291,VALID,356,VALID,0.251172,
2011-12-18, 00:28:04,VALID,1003.14,VALID,0,VALID,101.052,VALID,0,VALID,24.2273,VALID,356,VALID,0.437891,
2011-12-18, 00:29:04,VALID,1003.13,VALID,0,VALID,101.029,VALID,0,VALID,24.2681,VALID,326,VALID,0.494141,
2011-12-18, 00:30:04,VALID,1003.11,VALID,0,VALID,101.014,VALID,0,VALID,24.2875,VALID,354,VALID,0.219141,
2011-12-18, 00:31:04,VALID,1003.11,VALID,0,VALID,100.968,VALID,0,VALID,24.2875,VALID,351,VALID,0.565234,
2011-12-18, 00:32:04,VALID,1003.08,VALID,0,VALID,100.938,VALID,0,VALID,24.307,VALID,314,VALID,0.476953,
2011-12-18, 00:33:04,VALID,1003.06,VALID,0,VALID,100.983,VALID,0,VALID,24.3265,VALID,352,VALID,0.687109,
2011-12-18, 00:34:04,VALID,1003.07,VALID,0,VALID,100.953,VALID,0,VALID,24.3246,VALID,3,VALID,0.870703,
2011-12-18, 00:35:04,VALID,1003,VALID,0,VALID,100.976,VALID,0,VALID,24.3654,VALID,343,VALID,0.414453,
2011-12-18, 00:36:04,VALID,1002.96,VALID,0,VALID,100.968,VALID,0,VALID,24.3849,VALID,342,VALID,0.382422,
2011-12-18, 00:37:04,VALID,1002.92,VALID,0,VALID,100.953,VALID,0,VALID,24.4238,VALID,342,VALID,0.283203,
2011-12-18, 00:38:04,VALID,1002.84,VALID,0,VALID,100.922,VALID,0,VALID,24.4433,VALID,342,VALID,0,
2011-12-18, 00:39:04,VALID,1002.8,VALID,0,VALID,100.915,VALID,0,VALID,24.4822,VALID,342,VALID,0,
2011-12-18, 00:40:04,VALID,1002.79,VALID,0,VALID,100.877,VALID,0,VALID,24.4822,VALID,342,VALID,0,
2011-12-18, 00:41:04,VALID,1002.78,VALID,0,VALID,100.839,VALID,0,VALID,24.4822,VALID,342,VALID,0,
2011-12-18, 00:42:04,VALID,1002.77,VALID,0,VALID,100.762,VALID,0,VALID,24.5017,VALID,342,VALID,0.384766,
2011-12-18, 00:43:04,VALID,1002.79,VALID,0,VALID,100.663,VALID,0,VALID,24.5017,VALID,342,VALID,0.665234,
2011-12-18, 00:44:04,VALID,1002.78,VALID,0,VALID,100.427,VALID,0,VALID,24.4998,VALID,342,VALID,0.729688,
2011-12-18, 00:45:04,VALID,1002.8,VALID,0,VALID,100.282,VALID,0,VALID,24.5017,VALID,342,VALID,0.507031,
2011-12-18, 00:46:04,VALID,1002.75,VALID,0,VALID,100.205,VALID,0,VALID,24.4822,VALID,342,VALID,0.299609,
2011-12-18, 00:47:04,VALID,1002.74,VALID,0,VALID,100.312,VALID,0,VALID,24.4414,VALID,342,VALID,0,
2011-12-18, 00:48:04,VALID,1002.7,VALID,0,VALID,100.396,VALID,0,VALID,24.4414,VALID,342,VALID,0,
2011-12-18, 00:49:04,VALID,1002.67,VALID,0,VALID,100.457,VALID,0,VALID,24.4628,VALID,342,VALID,0.0199219,
2011-12-18, 00:50:04,VALID,1002.68,VALID,0,VALID,100.526,VALID,0.0815089,VALID,24.4414,VALID,342,VALID,0,
2011-12-18, 00:51:04,VALID,1002.68,VALID,0,VALID,100.61,VALID,0.0815089,VALID,24.4609,VALID,342,VALID,0,
2011-12-18, 00:52:04,VALID,1002.65,VALID,0,VALID,100.61,VALID,0,VALID,24.4609,VALID,342,VALID,0,
2011-12-18, 00:53:04,VALID,1002.68,VALID,0,VALID,100.617,VALID,0,VALID,24.4414,VALID,342,VALID,0,
2011-12-18, 00:54:04,VALID,1002.67,VALID,0,VALID,100.526,VALID,0.0815089,VALID,24.4414,VALID,342,VALID,0.199219,
2011-12-18, 00:55:04,VALID,1002.67,VALID,0,VALID,100.472,VALID,0.0815089,VALID,24.4414,VALID,346,VALID,0.498437,
2011-12-18, 00:56:04,VALID,1002.65,VALID,0,VALID,100.625,VALID,0,VALID,24.4414,VALID,345,VALID,0.366016,
2011-12-18, 00:57:04,VALID,1002.63,VALID,0,VALID,100.701,VALID,0.0815089,VALID,24.4609,VALID,345,VALID,0.00507812,
2011-12-18, 00:58:04,VALID,1002.63,VALID,0,VALID,100.678,VALID,0,VALID,24.4822,VALID,345,VALID,0.140625,
2011-12-18, 00:59:04,VALID,1002.6,VALID,0,VALID,100.663,VALID,0.0815089,VALID,24.4201,VALID,346,VALID,0.514453,
2011-12-18, 01:00:04,VALID,1002.59,VALID,0,VALID,100.671,VALID,0,VALID,24.4609,VALID,346,VALID,0.428125,
2011-12-18, 01:01:04,VALID,1002.6,VALID,0,VALID,100.61,VALID,0.0815089,VALID,24.4609,VALID,346,VALID,0.650391,
2011-12-18, 01:02:04,VALID,1002.57,VALID,0,VALID,100.427,VALID,0,VALID,24.4414,VALID,346,VALID,0.53125,
2011-12-18, 01:03:04,VALID,1002.55,VALID,0,VALID,100.503,VALID,0.0815089,VALID,24.4414,VALID,346,VALID,0.641797,
2011-12-18, 01:04:04,VALID,1002.53,VALID,0,VALID,100.48,VALID,0.0815089,VALID,24.4414,VALID,346,VALID,0.755469,
2011-12-18, 01:05:04,VALID,1002.54,VALID,0,VALID,100.396,VALID,0,VALID,24.422,VALID,347,VALID,0.725781,
2011-12-18, 01:06:04,VALID,1002.5,VALID,0,VALID,100.48,VALID,0.0815089,VALID,24.4006,VALID,354,VALID,0.879687,
2011-12-18, 01:07:04,VALID,1002.48,VALID,0,VALID,100.602,VALID,0,VALID,24.4414,VALID,353,VALID,1.17813,
2011-12-18, 01:08:04,VALID,1002.46,VALID,0,VALID,100.64,VALID,0,VALID,24.4609,VALID,337,VALID,0.831641,
2011-12-18, 01:09:04,VALID,1002.46,VALID,0,VALID,100.396,VALID,0.0815089,VALID,24.4804,VALID,332,VALID,0.659375,
2011-12-18, 01:10:04,VALID,1002.46,VALID,0,VALID,99.8926,VALID,0,VALID,24.4804,VALID,333,VALID,0.535156,
2011-12-18, 01:11:04,VALID,1002.43,VALID,0,VALID,99.7324,VALID,0,VALID,24.5017,VALID,332,VALID,0.212891,
2011-12-18, 01:12:04,VALID,1002.39,VALID,0,VALID,99.1907,VALID,0,VALID,24.4609,VALID,332,VALID,0.470703,
2011-12-18, 01:13:04,VALID,1002.4,VALID,0,VALID,98.8398,VALID,0,VALID,24.4414,VALID,343,VALID,0.534375,
2011-12-18, 01:14:04,VALID,1002.36,VALID,0,VALID,99.0229,VALID,0,VALID,24.4628,VALID,2,VALID,0.487891,
2011-12-18, 01:15:04,VALID,1002.35,VALID,0,VALID,98.8627,VALID,0.0815089,VALID,24.422,VALID,2,VALID,0.445703,
2011-12-18, 01:16:04,VALID,1002.34,VALID,0,VALID,98.6567,VALID,0,VALID,24.4025,VALID,2,VALID,0.4375,
2011-12-18, 01:17:05,VALID,1002.33,VALID,0,VALID,97.3903,VALID,0.0815089,VALID,24.4025,VALID,360,VALID,0.566797,
2011-12-18, 01:18:05,VALID,1002.33,VALID,0,VALID,98.3515,VALID,0,VALID,24.383,VALID,360,VALID,0.448047,
2011-12-18, 01:19:05,VALID,1002.33,VALID,0,VALID,97.2453,VALID,0,VALID,24.3441,VALID,6,VALID,0.726953,
2011-12-18, 01:20:05,VALID,1002.3,VALID,0,VALID,97.108,VALID,0.0815089,VALID,24.3246,VALID,19,VALID,1.37656,
2011-12-18, 01:21:05,VALID,1002.3,VALID,0,VALID,97.1309,VALID,0,VALID,24.3654,VALID,18,VALID,0.598828,
2011-12-18, 01:22:05,VALID,1002.28,VALID,0,VALID,97.1767,VALID,0,VALID,24.3636,VALID,10,VALID,0.471094,
2011-12-18, 01:23:05,VALID,1002.28,VALID,0,VALID,97.1462,VALID,0,VALID,24.3636,VALID,9,VALID,0.542188,
2011-12-18, 01:24:05,VALID,1002.25,VALID,0,VALID,97.1919,VALID,0,VALID,24.3441,VALID,336,VALID,0.840625,
2011-12-18, 01:25:05,VALID,1002.26,VALID,0,VALID,97.1233,VALID,0,VALID,24.3636,VALID,359,VALID,0.453125,
2011-12-18, 01:26:05,VALID,1002.24,VALID,0,VALID,97.1538,VALID,0,VALID,24.383,VALID,303,VALID,0.498828,
2011-12-18, 01:27:05,VALID,1002.24,VALID,0,VALID,97.1385,VALID,0,VALID,24.3849,VALID,337,VALID,0.417969,
2011-12-18, 01:28:05,VALID,1002.23,VALID,0,VALID,97.1538,VALID,0,VALID,24.3849,VALID,336,VALID,0.284766,
2011-12-18, 01:29:04,VALID,1002.21,VALID,0,VALID,97.1843,VALID,0,VALID,24.3849,VALID,341,VALID,0.142578,
2011-12-18, 01:30:05,VALID,1002.25,VALID,0,VALID,97.2301,VALID,0,VALID,24.3441,VALID,341,VALID,0,
2011-12-18, 01:31:05,VALID,1002.25,VALID,0,VALID,97.2072,VALID,0,VALID,24.3459,VALID,4,VALID,0.915234,
2011-12-18, 01:32:05,VALID,1002.29,VALID,0,VALID,97.108,VALID,0,VALID,24.2857,VALID,353,VALID,0.858203,
2011-12-18, 01:33:05,VALID,1002.29,VALID,0,VALID,97.1462,VALID,0,VALID,24.2857,VALID,354,VALID,0.839844,
2011-12-18, 01:34:05,VALID,1002.29,VALID,0,VALID,97.1691,VALID,0,VALID,24.2681,VALID,354,VALID,0.773828,
2011-12-18, 01:35:05,VALID,1002.32,VALID,0,VALID,97.1309,VALID,0,VALID,24.2486,VALID,353,VALID,0.900781,
2011-12-18, 01:36:05,VALID,1002.3,VALID,0,VALID,97.4055,VALID,0,VALID,24.2097,VALID,349,VALID,0.757813,
2011-12-18, 01:37:05,VALID,1002.27,VALID,0,VALID,97.5734,VALID,0,VALID,24.2097,VALID,343,VALID,0.894141,
2011-12-18, 01:38:05,VALID,1002.24,VALID,0,VALID,97.642,VALID,0.0815089,VALID,24.1884,VALID,346,VALID,0.734766,
2011-12-18, 01:39:05,VALID,1002.25,VALID,0,VALID,97.6497,VALID,0,VALID,24.1902,VALID,348,VALID,0.549609,
2011-12-18, 01:40:05,VALID,1002.24,VALID,0,VALID,97.6115,VALID,0,VALID,24.1689,VALID,348,VALID,0.505078,
2011-12-18, 01:41:05,VALID,1002.23,VALID,0,VALID,97.6039,VALID,0,VALID,24.1689,VALID,343,VALID,0.832422,
2011-12-18, 01:42:05,VALID,1002.26,VALID,0,VALID,97.6954,VALID,0,VALID,24.1902,VALID,342,VALID,0.269141,
2011-12-18, 01:43:05,VALID,1002.27,VALID,0,VALID,97.6649,VALID,0,VALID,24.1494,VALID,342,VALID,0.63125,
2011-12-18, 01:44:05,VALID,1002.31,VALID,0,VALID,97.5658,VALID,0,VALID,24.1494,VALID,344,VALID,0.733594,
2011-12-18, 01:45:05,VALID,1002.31,VALID,0,VALID,97.6192,VALID,0,VALID,24.13,VALID,342,VALID,0.851563,
2011-12-18, 01:46:05,VALID,1002.31,VALID,0,VALID,97.7717,VALID,0,VALID,24.13,VALID,352,VALID,0.808594,
2011-12-18, 01:47:05,VALID,1002.31,VALID,0,VALID,97.8328,VALID,0,VALID,24.1105,VALID,344,VALID,0.85,
2011-12-18, 01:48:05,VALID,1002.3,VALID,0,VALID,97.8785,VALID,0,VALID,24.1318,VALID,341,VALID,0.811719,
2011-12-18, 01:49:05,VALID,1002.32,VALID,0,VALID,98.3134,VALID,0,VALID,24.1105,VALID,348,VALID,0.630859,
2011-12-18, 01:50:05,VALID,1002.27,VALID,0,VALID,101.266,VALID,0,VALID,24.1123,VALID,336,VALID,0.824219,
2011-12-18, 01:51:05,VALID,1002.27,VALID,0,VALID,101.693,VALID,0,VALID,24.1513,VALID,360,VALID,1.6293,
2011-12-18, 01:52:05,VALID,1002.27,VALID,0,VALID,101.945,VALID,0,VALID,24.2273,VALID,353,VALID,0.898828,
2011-12-18, 01:53:05,VALID,1002.23,VALID,0,VALID,101.907,VALID,0.0815089,VALID,24.3265,VALID,360,VALID,1.28906,
2011-12-18, 01:54:05,VALID,1002.2,VALID,0,VALID,101.281,VALID,0,VALID,24.3636,VALID,357,VALID,1.38867,
2011-12-18, 01:55:05,VALID,1002.19,VALID,0,VALID,96.78,VALID,0,VALID,24.4414,VALID,7,VALID,1.03477,
2011-12-18, 01:56:05,VALID,1002.17,VALID,0,VALID,96.4901,VALID,0.0815089,VALID,24.4998,VALID,356,VALID,1.42813,
2011-12-18, 01:57:05,VALID,1002.15,VALID,0,VALID,96.429,VALID,0.0815089,VALID,24.5406,VALID,360,VALID,1.31562,
2011-12-18, 01:58:05,VALID,1002.15,VALID,0,VALID,96.5511,VALID,0,VALID,24.5972,VALID,13,VALID,0.767969,
2011-12-18, 01:59:05,VALID,1002.12,VALID,0,VALID,96.6503,VALID,0,VALID,24.5796,VALID,8,VALID,0.827344,
2011-12-18, 02:00:05,VALID,1002.13,VALID,0,VALID,96.7113,VALID,0,VALID,24.5796,VALID,359,VALID,1.03633,
2011-12-18, 02:01:05,VALID,1002.13,VALID,0,VALID,96.6884,VALID,0,VALID,24.5406,VALID,30,VALID,1.26602,
2011-12-18, 02:02:05,VALID,1002.11,VALID,0,VALID,96.6045,VALID,0,VALID,24.5796,VALID,358,VALID,1.23164,
2011-12-18, 02:03:05,VALID,1002.09,VALID,0,VALID,95.5517,VALID,0,VALID,24.599,VALID,6,VALID,1.48633,
2011-12-18, 02:04:05,VALID,1002.09,VALID,0,VALID,95.8187,VALID,0,VALID,24.638,VALID,13,VALID,1.51914,
2011-12-18, 02:05:05,VALID,1002.06,VALID,0,VALID,94.5066,VALID,0,VALID,24.6964,VALID,19,VALID,1.28555,
2011-12-18, 02:06:05,VALID,1002.01,VALID,0,VALID,94.1862,VALID,0,VALID,24.7177,VALID,11,VALID,1.19883,
2011-12-18, 02:07:05,VALID,1002.01,VALID,0,VALID,94.0183,VALID,0,VALID,24.6964,VALID,21,VALID,1.975,
2011-12-18, 02:08:05,VALID,1002.01,VALID,0,VALID,95.5822,VALID,0,VALID,24.7159,VALID,19,VALID,0.923828,
2011-12-18, 02:09:05,VALID,1002,VALID,0,VALID,93.9954,VALID,0,VALID,24.6964,VALID,6,VALID,1.71367,
2011-12-18, 02:10:05,VALID,1001.97,VALID,0,VALID,93.7513,VALID,0,VALID,24.7372,VALID,5,VALID,1.62461,
2011-12-18, 02:11:05,VALID,1001.97,VALID,0,VALID,93.6369,VALID,0,VALID,24.7335,VALID,19,VALID,1.25117,
2011-12-18, 02:12:05,VALID,1001.96,VALID,0,VALID,93.4462,VALID,0,VALID,24.7761,VALID,26,VALID,1.69102,
2011-12-18, 02:13:05,VALID,1001.92,VALID,0,VALID,92.9961,VALID,0,VALID,24.7548,VALID,16,VALID,3.06484,
2011-12-18, 02:14:05,VALID,1001.89,VALID,0,VALID,92.7062,VALID,0,VALID,24.8503,VALID,18,VALID,2.56055,
2011-12-18, 02:15:05,VALID,1001.85,VALID,0,VALID,92.5307,VALID,0,VALID,24.8892,VALID,11,VALID,1.975,
2011-12-18, 02:16:05,VALID,1001.81,VALID,0,VALID,92.5917,VALID,0,VALID,24.8892,VALID,355,VALID,1.84648,
2011-12-18, 02:17:05,VALID,1001.73,VALID,0,VALID,92.5688,VALID,0,VALID,24.8892,VALID,40,VALID,1.60195,
2011-12-18, 02:18:05,VALID,1001.71,VALID,0,VALID,92.4849,VALID,0,VALID,24.8892,VALID,19,VALID,1.47383,
2011-12-18, 02:19:05,VALID,1001.68,VALID,0,VALID,92.401,VALID,0.0815089,VALID,24.93,VALID,18,VALID,1.19414,
2011-12-18, 02:20:05,VALID,1001.64,VALID,0,VALID,92.0196,VALID,0,VALID,24.9087,VALID,356,VALID,1.67578,
2011-12-18, 02:21:05,VALID,1001.63,VALID,0,VALID,92.1798,VALID,0,VALID,24.9282,VALID,10,VALID,1.76016,
2011-12-18, 02:22:05,VALID,1001.59,VALID,0,VALID,91.989,VALID,0.0815089,VALID,24.9087,VALID,3,VALID,2.09648,
2011-12-18, 02:23:05,VALID,1001.6,VALID,0,VALID,92.0882,VALID,0.0815089,VALID,24.9282,VALID,15,VALID,2.09141,
2011-12-18, 02:24:05,VALID,1001.54,VALID,0,VALID,91.8746,VALID,0.0815089,VALID,24.9282,VALID,12,VALID,2.35977,
2011-12-18, 02:25:05,VALID,1001.55,VALID,0,VALID,91.9662,VALID,0,VALID,24.969,VALID,18,VALID,2.02695,
2011-12-18, 02:26:05,VALID,1001.58,VALID,0,VALID,92.0653,VALID,0,VALID,24.9282,VALID,23,VALID,1.57852,
2011-12-18, 02:27:05,VALID,1001.58,VALID,0,VALID,92.3476,VALID,0.0815089,VALID,24.9087,VALID,29,VALID,1.15117,
2011-12-18, 02:28:05,VALID,1001.62,VALID,0,VALID,92.3247,VALID,0,VALID,24.8503,VALID,25,VALID,1.86602,
2011-12-18, 02:29:04,VALID,1001.6,VALID,0,VALID,92.5841,VALID,0,VALID,24.8113,VALID,16,VALID,1.59687,
2011-12-18, 02:30:05,VALID,1001.55,VALID,0,VALID,92.4086,VALID,0,VALID,24.7937,VALID,16,VALID,1.73594,
2011-12-18, 02:31:05,VALID,1001.59,VALID,0,VALID,92.4315,VALID,0,VALID,24.7353,VALID,17,VALID,2.55977,
2011-12-18, 02:32:05,VALID,1001.58,VALID,0,VALID,92.874,VALID,0,VALID,24.6945,VALID,50,VALID,0.856641,
2011-12-18, 02:33:05,VALID,1001.6,VALID,0,VALID,93.0952,VALID,0,VALID,24.6556,VALID,22,VALID,1.17734,
2011-12-18, 02:34:05,VALID,1001.55,VALID,0,VALID,93.1563,VALID,0,VALID,24.6166,VALID,27,VALID,1.90078,
2011-12-18, 02:35:05,VALID,1001.48,VALID,0,VALID,93.0876,VALID,0,VALID,24.5758,VALID,15,VALID,1.67734,
2011-12-18, 02:36:05,VALID,1001.48,VALID,0,VALID,93.1486,VALID,0,VALID,24.599,VALID,30,VALID,1.34102,
2011-12-18, 02:37:05,VALID,1001.45,VALID,0,VALID,93.3088,VALID,0,VALID,24.5582,VALID,4,VALID,1.24883,
2011-12-18, 02:38:05,VALID,1001.43,VALID,0,VALID,93.2936,VALID,0,VALID,24.5388,VALID,11,VALID,1.69336,
2011-12-18, 02:39:05,VALID,1001.4,VALID,0,VALID,93.4385,VALID,0,VALID,24.5193,VALID,5,VALID,0.849609,
2011-12-18, 02:40:05,VALID,1001.4,VALID,0,VALID,93.553,VALID,0,VALID,24.5212,VALID,15,VALID,0.910547,
2011-12-18, 02:41:05,VALID,1001.4,VALID,0,VALID,93.6369,VALID,0,VALID,24.5193,VALID,24,VALID,1.19062,
2011-12-18, 02:42:05,VALID,1001.36,VALID,0,VALID,93.5987,VALID,0,VALID,24.5406,VALID,4,VALID,1.16172,
2011-12-18, 02:43:05,VALID,1001.34,VALID,0,VALID,93.5835,VALID,0,VALID,24.5212,VALID,29,VALID,1.75781,
2011-12-18, 02:44:05,VALID,1001.32,VALID,0,VALID,93.5987,VALID,0,VALID,24.5406,VALID,35,VALID,1.69648,
2011-12-18, 02:45:05,VALID,1001.3,VALID,0,VALID,93.5835,VALID,0,VALID,24.5796,VALID,35,VALID,1.69805,
2011-12-18, 02:46:05,VALID,1001.34,VALID,0,VALID,93.2707,VALID,0,VALID,24.638,VALID,5,VALID,1.91289,
2011-12-18, 02:47:05,VALID,1001.36,VALID,0,VALID,93.3241,VALID,0,VALID,24.6166,VALID,30,VALID,1.07852,
2011-12-18, 02:48:05,VALID,1001.36,VALID,0,VALID,93.3394,VALID,0,VALID,24.6574,VALID,16,VALID,1.89023,
2011-12-18, 02:49:05,VALID,1001.36,VALID,0,VALID,93.3775,VALID,0,VALID,24.6769,VALID,28,VALID,0.980469,
2011-12-18, 02:50:05,VALID,1001.37,VALID,0,VALID,93.3394,VALID,0,VALID,24.6361,VALID,25,VALID,1.28125,
2011-12-18, 02:51:05,VALID,1001.38,VALID,0,VALID,93.3012,VALID,0,VALID,24.6361,VALID,347,VALID,2.05195,
2011-12-18, 02:52:05,VALID,1001.35,VALID,0,VALID,93.4385,VALID,0,VALID,24.6574,VALID,47,VALID,1.05898,
2011-12-18, 02:53:05,VALID,1001.35,VALID,0,VALID,93.3546,VALID,0,VALID,24.5972,VALID,25,VALID,1.64766,
2011-12-18, 02:54:05,VALID,1001.35,VALID,0,VALID,93.5072,VALID,0,VALID,24.6166,VALID,30,VALID,1.28828,
2011-12-18, 02:55:05,VALID,1001.38,VALID,0,VALID,93.553,VALID,0,VALID,24.6185,VALID,31,VALID,1.50859,
2011-12-18, 02:56:05,VALID,1001.36,VALID,0,VALID,93.5987,VALID,0,VALID,24.5972,VALID,19,VALID,1.12578,
2011-12-18, 02:57:05,VALID,1001.4,VALID,0,VALID,93.675,VALID,0.0815089,VALID,24.5972,VALID,36,VALID,1.04414,
2011-12-18, 02:58:05,VALID,1001.36,VALID,0,VALID,93.6292,VALID,0,VALID,24.5777,VALID,23,VALID,1.33125,
2011-12-18, 02:59:05,VALID,1001.37,VALID,0,VALID,93.7361,VALID,0,VALID,24.5582,VALID,23,VALID,1.3793,
2011-12-18, 03:00:05,VALID,1001.35,VALID,0,VALID,93.8352,VALID,0,VALID,24.5388,VALID,31,VALID,1.06758,
2011-12-18, 03:01:05,VALID,1001.34,VALID,0,VALID,94.0107,VALID,0,VALID,24.5796,VALID,18,VALID,1.22578,
2011-12-18, 03:02:05,VALID,1001.39,VALID,0,VALID,94.0183,VALID,0,VALID,24.5796,VALID,11,VALID,2.52852,
2011-12-18, 03:03:05,VALID,1001.33,VALID,0,VALID,94.0488,VALID,0,VALID,24.6166,VALID,25,VALID,1.70742,
2011-12-18, 03:04:05,VALID,1001.33,VALID,0,VALID,94.0488,VALID,0,VALID,24.6361,VALID,21,VALID,2.1332,
2011-12-18, 03:05:05,VALID,1001.38,VALID,0,VALID,94.0031,VALID,0,VALID,24.6574,VALID,1,VALID,2.24648,
2011-12-18, 03:06:05,VALID,1001.4,VALID,0,VALID,93.9878,VALID,0,VALID,24.6556,VALID,14,VALID,1.46055,
2011-12-18, 03:07:05,VALID,1001.41,VALID,0,VALID,94.1404,VALID,0,VALID,24.6964,VALID,29,VALID,1.55781,
2011-12-18, 03:08:05,VALID,1001.45,VALID,0,VALID,94.2396,VALID,0,VALID,24.675,VALID,15,VALID,1.50781,
2011-12-18, 03:09:05,VALID,1001.43,VALID,0,VALID,94.3006,VALID,0,VALID,24.675,VALID,24,VALID,1.48633,
2011-12-18, 03:10:05,VALID,1001.47,VALID,0.5,VALID,94.3921,VALID,0,VALID,24.675,VALID,30,VALID,0.942578,
2011-12-18, 03:11:05,VALID,1001.46,VALID,0,VALID,94.3464,VALID,0,VALID,24.6361,VALID,22,VALID,1.93672,
2011-12-18, 03:12:05,VALID,1001.53,VALID,0,VALID,94.4455,VALID,0,VALID,24.6556,VALID,17,VALID,1.075,
2011-12-18, 03:13:05,VALID,1001.56,VALID,0,VALID,94.5371,VALID,0,VALID,24.6361,VALID,6,VALID,1.13906,
2011-12-18, 03:14:05,VALID,1001.58,VALID,0,VALID,94.5752,VALID,0,VALID,24.6166,VALID,20,VALID,2.15352,
2011-12-18, 03:15:05,VALID,1001.59,VALID,0,VALID,94.7049,VALID,0,VALID,24.638,VALID,35,VALID,1.00586,
2011-12-18, 03:16:05,VALID,1001.57,VALID,0,VALID,94.7583,VALID,0,VALID,24.6166,VALID,14,VALID,1.02266,
2011-12-18, 03:17:05,VALID,1001.63,VALID,0.5,VALID,94.7431,VALID,0,VALID,24.6166,VALID,7,VALID,1.8707,
2011-12-18, 03:18:05,VALID,1001.63,VALID,0,VALID,94.7125,VALID,0,VALID,24.6361,VALID,357,VALID,1.32734,
2011-12-18, 03:19:05,VALID,1001.61,VALID,0,VALID,94.7125,VALID,0,VALID,24.6166,VALID,9,VALID,0.814844,
2011-12-18, 03:20:05,VALID,1001.65,VALID,0,VALID,94.7202,VALID,0,VALID,24.6361,VALID,28,VALID,2.41289,
2011-12-18, 03:21:05,VALID,1001.63,VALID,0,VALID,94.766,VALID,0,VALID,24.6574,VALID,354,VALID,1.51523,
2011-12-18, 03:22:05,VALID,1001.68,VALID,0,VALID,94.7507,VALID,0,VALID,24.6361,VALID,8,VALID,1.71289,
2011-12-18, 03:23:05,VALID,1001.69,VALID,0,VALID,94.7049,VALID,0,VALID,24.6361,VALID,1,VALID,2.19961,
2011-12-18, 03:24:05,VALID,1001.67,VALID,0,VALID,94.682,VALID,0,VALID,24.6556,VALID,19,VALID,1.35508,
2011-12-18, 03:25:05,VALID,1001.69,VALID,0.5,VALID,94.7431,VALID,0,VALID,24.6166,VALID,7,VALID,2.04492,
2011-12-18, 03:26:05,VALID,1001.7,VALID,0,VALID,94.7888,VALID,0,VALID,24.6361,VALID,10,VALID,1.16992,
2011-12-18, 03:27:05,VALID,1001.72,VALID,0,VALID,94.8346,VALID,0,VALID,24.6166,VALID,23,VALID,1.37969,
2011-12-18, 03:28:05,VALID,1001.75,VALID,0,VALID,94.827,VALID,0,VALID,24.6148,VALID,11,VALID,2.01641,
2011-12-18, 03:29:05,VALID,1001.78,VALID,0,VALID,94.8651,VALID,0.0815089,VALID,24.6166,VALID,23,VALID,1.48594,
2011-12-18, 03:30:05,VALID,1001.77,VALID,0,VALID,94.8422,VALID,0.0815089,VALID,24.6361,VALID,354,VALID,1.80078,
2011-12-18, 03:31:05,VALID,1001.79,VALID,0.5,VALID,94.8651,VALID,0,VALID,24.638,VALID,15,VALID,1.59492,
2011-12-18, 03:32:05,VALID,1001.82,VALID,0,VALID,94.8194,VALID,0,VALID,24.6574,VALID,346,VALID,1.58711,
2011-12-18, 03:33:05,VALID,1001.83,VALID,0,VALID,94.8575,VALID,0,VALID,24.638,VALID,351,VALID,0.956641,
2011-12-18, 03:34:05,VALID,1001.86,VALID,0,VALID,94.8804,VALID,0,VALID,24.6166,VALID,359,VALID,1.73945,
2011-12-18, 03:35:05,VALID,1001.88,VALID,0,VALID,94.9796,VALID,0,VALID,24.5972,VALID,6,VALID,1.30391,
2011-12-18, 03:36:05,VALID,1001.89,VALID,0,VALID,95.033,VALID,0,VALID,24.5582,VALID,8,VALID,1.70742,
2011-12-18, 03:37:05,VALID,1001.91,VALID,0,VALID,95.0787,VALID,0,VALID,24.599,VALID,356,VALID,1.15937,
2011-12-18, 03:38:05,VALID,1001.92,VALID,0,VALID,95.1474,VALID,0,VALID,24.5777,VALID,14,VALID,0.852344,
2011-12-18, 03:39:05,VALID,1001.94,VALID,0,VALID,95.1855,VALID,0,VALID,24.5582,VALID,357,VALID,1.02109,
2011-12-18, 03:40:05,VALID,1001.95,VALID,0.5,VALID,95.2237,VALID,0,VALID,24.5777,VALID,10,VALID,1.32773,
2011-12-18, 03:41:05,VALID,1001.95,VALID,0,VALID,95.2313,VALID,0,VALID,24.6185,VALID,15,VALID,1.74258,
2011-12-18, 03:42:05,VALID,1001.97,VALID,0,VALID,95.2084,VALID,0,VALID,24.6166,VALID,41,VALID,1.0375,
2011-12-18, 03:43:05,VALID,1002.01,VALID,0,VALID,95.2161,VALID,0,VALID,24.6166,VALID,24,VALID,1.05,
2011-12-18, 03:44:05,VALID,1001.99,VALID,0,VALID,95.2084,VALID,0,VALID,24.638,VALID,29,VALID,0.991016,
2011-12-18, 03:45:05,VALID,1002.03,VALID,0,VALID,95.2389,VALID,0.0815089,VALID,24.638,VALID,11,VALID,0.659375,